{"data":{"norad_id":69181,"intl_designator":"2026-113B","name":"CZ-2F R/B","alt_names":[],"object_type":"ROCKET_BODY","status":"UNKNOWN","operator":null,"country":"PRC","launch_date":"2026-05-24","launch_site_code":"JSC","launch_vehicle":null,"mission":null,"orbit_class":"UNKNOWN","rcs_meters":null,"size_class":null,"mass_kg":null,"dimensions":null,"purposes":[],"wikipedia_slug":null,"has_3d_model":false,"image_url":null,"decayed_at":null,"tle_current":{"epoch":"2026-05-25T04:16:40.672992Z","epoch_age_seconds":62817,"freshness":"FRESH","line1":"1 69181U 26113B   26145.17824853  .00290372  75792-5  23752-3 0  9994","line2":"2 69181  41.4669 101.7926 0110256 128.5701 232.5091 16.01258577    95","mean_motion":16.01258577,"eccentricity":0.0110256,"inclination_deg":41.4669,"raan_deg":101.7926,"arg_perigee_deg":128.5701,"mean_anomaly_deg":232.5091,"bstar":0.00023752,"rev_number":9,"period_min":89.929260688044,"perigee_km":197.62236033018,"apogee_km":344.24231814356,"semimajor_km":6649.0693392369,"source":"CELESTRAK","updated_at":"2026-05-25T13:38:09.298596Z"}}}